TIANWANG 1A (TW-1A)
1 40928U 15051D   19281.90133309  .00002593  00000-0  64104-4 0  9992
2 40928  97.1374 310.7047 0011908  33.2961  89.2521 15.41306399226458
LAPAN A2
1 40931U 15052B   19281.80817167  .00001348  00000-0  98719-4 0  9993
2 40931   6.0099 337.0048 0013942 298.9597  60.9124 14.76623211217865
LQSAT
1 40958U 15057A   19281.77725675 -.00000006  00000-0  66596-5 0  9995
2 40958  97.8883 347.8850 0016985 239.2450 120.7085 14.73090967215300
CHUBUSAT 2
1 41338U 16012B   19281.80681765 +.00000303 +00000-0 +16812-4 0  9999
2 41338 031.0023 152.2469 0013717 134.5283 225.6474 15.00189419199764
CHUBUSAT 3
1 41339U 16012C   19281.89633385 +.00000300 +00000-0 +16509-4 0  9994
2 41339 031.0101 149.6295 0013438 142.9425 217.2140 15.00362107199775
OUFTI-1
1 41458U 16025C   19281.88201947 +.00000987 +00000-0 +54222-4 0  9999
2 41458 098.1003 014.4308 0165266 340.2656 019.2222 15.06064999189451
E-STAR-2
1 41459U 16025D   19281.79278731  .00001015  00000-0  56000-4 0  9994
2 41459  98.1007  13.9357 0166365 341.9605  17.5746 15.05691599189416
AAUSAT 4
1 41460U 16025E   19281.75846253  .00000778  00000-0  43038-4 0  9994
2 41460  98.0943  15.4274 0156387 333.7303  25.6054 15.07664623189555
NUSAT 1
1 41557U 16033B   19281.88162953 +.00001019 +00000-0 +40699-4 0  9991
2 41557 097.4151 008.7249 0012137 260.0969 099.8900 15.27422489187215
BEESAT 4
1 41619U 16040W   19281.84900698 +.00001055 +00000-0 +47320-4 0  9998
2 41619 097.3561 341.9257 0011016 358.0602 002.0590 15.23349281170932
PRATHAM
1 41783U 16059A   19281.76456307  .00000038  00000-0  16590-4 0  9999
2 41783  98.0556 338.8014 0034206  33.6415 326.6950 14.63012612161939
ALSAT 1N
1 41789U 16059G   19281.86251843  .00000050  00000-0  18502-4 0  9993
2 41789  98.0583 341.1394 0028717  22.8738 337.3721 14.64265887162066
NAYIF 1
1 42017U 17008BX  19281.72295858  .00001209  00000-0  50139-4 0  9991
2 42017  97.3926 347.6131 0007614 126.3898 233.8043 15.25769542147003
MAX VALIER SAT
1 42778U 17036P   19281.74954458  .00000709  00000-0  33844-4 0  9994
2 42778  97.3427 336.8831 0012288 183.1228 176.9934 15.22168475127280
